Voltar ao catálogo

ATLAS 2 CENTAUR R/B

AtivoHEO
NORAD 23968·ROCKET BODY·🇺🇸 United States

Lançado Jul 25, 1996 de Cape Canaveral Space Force Station

Loading…

Próximas Passagens (próximas 24 horas)

TLE

AtualizadoSource: Space-Track

Época: Sep 14, 2026, 08:01 UTC

1 23968U 96042B   26257.33433569  .00001442  00000-0  82079-3 0  9997
2 23968  26.6891 135.4812 6323350 232.5818  51.5600  3.52129382360895

Acompanhe ATLAS 2 CENTAUR R/B em tempo real com AllMySat

Download on the App Store